Torna al catalogo

TITAN 3C TRANSTAGE DEB

LostHEO
NORAD 26526·DEBRIS·🇺🇸 United States

Lanciato Dec 21, 1965 da Cape Canaveral Space Force Station

Loading…

Prossimi Passaggi (prossime 24 ore)

TLE

ObsoletoSource: Space-Track

Epoca: Oct 24, 2024, 05:47 UTC

1 26526U 65108AM  24298.24131281  .00000584  00000-0  35549-2 0  9993
2 26526  27.0953 271.9805 6511654 243.4914 289.0941  3.11000988273876

Traccia TITAN 3C TRANSTAGE DEB in tempo reale con AllMySat

Download on the App Store